TimeCST,TemperatureF,Dew PointF,Humidity,Sea Level PressureIn,VisibilityMPH,Wind Direction,Wind SpeedMPH,Gust SpeedMPH,PrecipitationIn,Events,Conditions,WindDirDegrees,DateUTC
12:20 AM,24.8,24.8,100,30.12,1.2,South,6.9,-,0.00,Snow,Light Snow,180,2014-01-10 06:20:00
12:54 AM,26.1,24.1,92,30.14,0.8,South,10.4,-,0.00,Snow,Light Snow,180,2014-01-10 06:54:00
1:54 AM,26.1,25.0,96,30.14,0.2,South,8.1,-,0.00,Fog,Light Freezing Fog,180,2014-01-10 07:54:00
1:56 AM,26.6,24.8,93,30.10,0.2,South,9.2,-,N/A,Fog,Light Freezing Fog,180,2014-01-10 07:56:00
2:38 AM,26.6,26.6,100,30.10,0.5,South,9.2,-,N/A,Fog,Light Freezing Fog,190,2014-01-10 08:38:00
2:54 AM,27.0,26.1,96,30.12,0.8,South,8.1,-,N/A,,Overcast,180,2014-01-10 08:54:00
3:03 AM,26.6,26.6,100,30.09,1.0,South,8.1,-,N/A,,Overcast,190,2014-01-10 09:03:00
3:54 AM,28.0,27.0,96,30.11,1.0,South,5.8,-,N/A,,Overcast,180,2014-01-10 09:54:00
4:54 AM,28.0,27.0,96,30.10,0.5,South,6.9,-,N/A,Fog,Light Freezing Fog,190,2014-01-10 10:54:00
5:54 AM,28.9,28.0,96,30.07,0.8,South,9.2,-,N/A,,Overcast,170,2014-01-10 11:54:00
6:03 AM,28.4,28.4,100,30.04,1.0,South,9.2,-,N/A,,Overcast,170,2014-01-10 12:03:00
6:29 AM,28.4,28.4,100,30.04,1.0,South,8.1,-,N/A,,Overcast,180,2014-01-10 12:29:00
6:54 AM,28.9,28.0,96,30.07,1.0,South,8.1,-,0.00,,Light Freezing Drizzle,190,2014-01-10 12:54:00
7:03 AM,28.4,28.4,100,30.04,4.0,South,9.2,-,0.00,,Light Freezing Drizzle,180,2014-01-10 13:03:00
7:54 AM,30.0,28.0,92,30.04,3.0,SSE,9.2,-,0.00,,Overcast,150,2014-01-10 13:54:00
8:09 AM,30.2,28.4,93,30.02,3.0,SSE,9.2,-,N/A,,Overcast,160,2014-01-10 14:09:00
8:28 AM,30.2,28.4,93,30.02,2.5,SSE,12.7,-,N/A,,Overcast,160,2014-01-10 14:28:00
8:54 AM,30.0,28.9,96,30.03,1.0,SSE,12.7,-,N/A,,Overcast,150,2014-01-10 14:54:00
9:35 AM,30.2,30.2,100,29.98,0.8,SSE,10.4,-,N/A,,Overcast,150,2014-01-10 15:35:00
9:54 AM,30.9,30.0,96,30.00,0.8,SSE,15.0,-,N/A,,Overcast,150,2014-01-10 15:54:00
10:16 AM,30.2,30.2,100,29.95,1.0,SE,9.2,-,N/A,,Overcast,140,2014-01-10 16:16:00
10:54 AM,32.0,30.9,96,29.95,1.5,SSE,12.7,-,N/A,,Overcast,160,2014-01-10 16:54:00
11:15 AM,33.8,30.2,87,29.89,3.0,SSE,12.7,-,N/A,,Overcast,150,2014-01-10 17:15:00
11:39 AM,33.8,30.2,87,29.87,3.0,SSE,12.7,-,N/A,,Overcast,150,2014-01-10 17:39:00
11:54 AM,33.1,30.9,92,29.88,6.0,SSE,15.0,23.0,N/A,,Overcast,150,2014-01-10 17:54:00
12:54 PM,33.1,32.0,96,29.83,2.0,SE,13.8,-,N/A,,Overcast,140,2014-01-10 18:54:00
1:04 PM,33.8,32.0,93,29.79,1.2,SSE,13.8,-,N/A,,Overcast,150,2014-01-10 19:04:00
1:29 PM,33.8,32.0,93,29.78,2.0,SSE,12.7,-,N/A,,Overcast,150,2014-01-10 19:29:00
1:43 PM,33.8,32.0,93,29.76,1.5,SSE,10.4,-,0.00,Rain,Light Rain,150,2014-01-10 19:43:00
1:54 PM,34.0,32.0,92,29.78,1.5,SSE,12.7,-,0.00,Rain,Light Rain,150,2014-01-10 19:54:00
2:17 PM,33.8,32.0,93,29.73,2.0,SE,11.5,-,0.00,Rain,Light Rain,140,2014-01-10 20:17:00
2:43 PM,33.8,33.8,100,29.71,1.5,SE,17.3,24.2,0.04,Rain,Heavy Rain,140,2014-01-10 20:43:00
2:54 PM,34.0,33.1,96,29.73,1.5,SE,17.3,-,0.07,Rain,Rain,140,2014-01-10 20:54:00
3:18 PM,35.6,33.8,93,29.68,1.2,SSE,20.7,-,0.09,Rain,Heavy Rain,150,2014-01-10 21:18:00
3:22 PM,35.6,33.8,93,29.68,2.0,SE,18.4,26.5,0.12,Rain,Heavy Rain,140,2014-01-10 21:22:00
3:30 PM,35.6,33.8,93,29.69,2.0,SSE,18.4,25.3,0.16,Rain,Heavy Rain,150,2014-01-10 21:30:00
3:39 PM,35.6,33.8,93,29.67,2.0,SE,19.6,26.5,0.22,Rain,Heavy Rain,140,2014-01-10 21:39:00
3:42 PM,33.8,33.8,100,29.67,1.5,SE,20.7,26.5,0.25,Rain,Heavy Rain,140,2014-01-10 21:42:00
3:49 PM,33.8,33.8,100,29.67,2.0,SSE,18.4,25.3,0.30,Rain,Heavy Rain,150,2014-01-10 21:49:00
3:54 PM,34.0,33.1,96,29.69,2.0,SE,19.6,26.5,0.32,Rain,Heavy Rain,140,2014-01-10 21:54:00
4:15 PM,35.6,33.8,93,29.65,3.0,SE,18.4,26.5,0.06,Rain,Rain,140,2014-01-10 22:15:00
4:47 PM,35.6,33.8,93,29.64,3.0,SSE,13.8,-,0.11,Rain,Rain,150,2014-01-10 22:47:00
4:54 PM,35.1,34.0,96,29.66,4.0,SSE,13.8,-,0.13,Rain,Rain,150,2014-01-10 22:54:00
5:54 PM,36.0,35.1,97,29.63,5.0,South,10.4,-,0.14,Rain,Light Rain,170,2014-01-10 23:54:00
6:54 PM,37.0,35.1,93,29.60,10.0,South,11.5,-,0.05,Rain,Light Rain,180,2014-01-11 00:54:00
7:54 PM,37.0,36.0,96,29.58,4.0,South,11.5,-,0.06,Rain,Rain,180,2014-01-11 01:54:00
8:02 PM,37.4,35.6,93,29.54,5.0,South,11.5,-,0.03,Rain,Light Rain,170,2014-01-11 02:02:00
8:54 PM,36.0,36.0,100,29.56,7.0,South,10.4,-,0.06,,Light Drizzle,180,2014-01-11 02:54:00
9:21 PM,35.6,35.6,100,29.53,2.0,South,10.4,-,0.00,,Light Drizzle,180,2014-01-11 03:21:00
9:39 PM,35.6,35.6,100,29.53,1.8,South,10.4,-,0.01,Rain,Light Rain,190,2014-01-11 03:39:00
9:54 PM,36.0,35.1,97,29.55,2.0,South,9.2,-,0.02,Rain,Light Rain,180,2014-01-11 03:54:00
10:54 PM,36.0,35.1,97,29.53,2.0,South,9.2,-,0.02,Rain,Light Rain,170,2014-01-11 04:54:00
11:50 PM,35.6,35.6,100,29.48,1.5,South,6.9,-,0.00,,Light Drizzle,180,2014-01-11 05:50:00
11:54 PM,35.1,35.1,100,29.51,1.5,South,6.9,-,0.00,,Light Drizzle,180,2014-01-11 05:54:00